sat.trackr.live / text

‹ back to catalog

GPS BIII-3 (PRN 23)

NORAD 45854 · 2020-041A

PAYLOAD ACTIVE UNKNOWN

§ Identity

Operator
Country
US
Launch date
2020-06-30
Launch site
AFETR
Launch vehicle
Mass (kg)
RCS (m²)

Purposes: earth_obs, nav

External: N2YO · Heavens-Above · Gunter

§ Orbital elements

Epoch: 2026-05-22T01:12:39.712896Z

Period
717.99 min
Inclination
56.6536°
Eccentricity
0.0062927
Mean motion
2.00559133 rev/d
Perigee alt
20,015.5 km
Apogee alt
20,349.7 km
Semi-major
26,560.7 km
B*
0.0000e+0
RAAN
29.9571°
Arg perigee
204.8500°
Mean anomaly
329.5146°
Rev number
4,351

§ Raw data

GPS BIII-3  (PRN 23)1 45854U 20041A   26142.05045964 -.00000093  00000+0  00000+0 0  99922 45854  56.6536  29.9571 0062927 204.8500 329.5146  2.00559133 43518

JSON: /api/v1/satellites/45854 · /tle

For live sub-satellite position, see the globe view (requires WebGL).

§ Visibility from observer

Set your observer location to see the next 7 days of passes ≥ 10°. The values pass through the URL so the page stays shareable.

No JS? Fill the form by hand. The geolocation button needs JavaScript.